Tracking 25612 objects as of 20-May-2022
HD Live streaming from Space Station
objects crossing your sky now

BREEZE-M DEB (TANK)

Track BREEZE-M DEB (TANK) now!
10-day predictions


NORAD ID: 37828
Int'l Code: 2011-054C
Perigee: 340.2 km
Apogee: 17,100.0 km
Inclination: 49.4 °
Period: 307.5 minutes
Semi major axis: 15091 km
RCS: 6.7148 m2 (large)
Launch date: September 29, 2011
Source: Commonwealth of Independent States (former USSR) (CIS)
Launch site: TYURATAM MISSILE AND SPACE COMPLEX (TTMTR)

Note: This is SATELLITE DEBRIS
aabbcc
Your satellite tracking list
Your tracking list is empty




NASA's NSSDC Master Catalog

Two Line Element Set (TLE):
1 37828U 11054C   22139.64202671  .00002381  00000-0  81517-3 0  9993
2 37828  49.3729 260.7123 5552880  20.3825 355.0461  4.68296096177265
Source of the keplerian elements: AFSPC